Flag for U.S.A. Weather past 2 weeks in Worcester, Massachusetts, U.S.A.

Now
29 °F

Light snow. Ice fog.


Feels Like: 22 °F
Forecast: 28 / 33 °F
Wind: 7 mph from Northeast

Location: Worcester Regional Airport

Current Time: Dec 21, 2014 at 3:18:21 PM

Latest Report: Dec 21, 2014 at 2:54 PM


Visibility: 4 mi

Pressure: 30.30 "Hg

Humidity: 93%

Dew point: 27 °F

Location of WorcesterLocation

Historic Weather in Worcester — Graph

°F

Worcester temperature yesterday

Maximum temperature yesterday: 32 °F (at 12:54 PM)
Minimum temperature yesterday: 23 °F (at 1:54 AM)
Average temperature yesterday: 27 °F

Past Weeks' High & Low Weather Summary

 TemperatureHumidityPressure
High43 °F (Dec 17, 1:54 PM)100% (Dec 6, 1:54 PM)30.74 "Hg (Dec 6, 1:54 PM)
Low12 °F (Dec 8, 3:54 AM)31% (Dec 7, 3:54 PM)29.42 "Hg (Dec 10, 10:04 PM)
Average30 °F84%29.99 "Hg
* Reported Dec 6 1:54 PM — Dec 21 1:54 PM, Worcester, Weather by CustomWeather, © 2014

Note: Actual official high and low records may vary slightly from our data, if they occured in-between our weather recording intervals... More about our weather records

Advertising

Worcester weather history for previous 24 hours

 ConditionsComfort  
Time TempWeatherWind HumidityBarometerVisibility
1:54 PM
Dec 21
29 °FLight snow. Low clouds.6 mph93%30.29 "Hg7 mi
1:01 PM29 °FLight snow. Ice fog.6 mph93%30.25 "Hg4 mi
11:54 AM28 °FLight snow. Ice fog.7 mph93%30.29 "Hg2 mi
10:54 AM27 °FLow clouds.6 mph96%30.31 "Hg10 mi
9:54 AM27 °FLow clouds.8 mph92%30.32 "Hg8 mi
8:54 AM26 °FLow clouds.7 mph96%30.32 "Hg9 mi
7:54 AM26 °FLow clouds.7 mph96%30.30 "Hg8 mi
6:54 AM26 °FLight snow. Ice fog.7 mph96%30.30 "Hg5 mi
5:54 AM26 °FLow clouds.8 mph96%30.29 "Hg10 mi
4:54 AM27 °FLow clouds.9 mph92%30.27 "Hg10 mi
3:54 AM27 °FLow clouds.7 mph89%30.27 "Hg10 mi
2:54 AM28 °FOvercast.7 mph85%30.28 "Hg10 mi
1:54 AM28 °FMostly cloudy.8 mph85%30.27 "Hg10 mi
12:54 AM28 °FOvercast.7 mph85%30.27 "Hg10 mi
11:54 PM
Dec 20
28 °FMostly cloudy.7 mph89%30.28 "Hg10 mi
10:54 PM28 °FOvercast.7 mph89%30.29 "Hg10 mi
9:54 PM28 °FOvercast.7 mph85%30.29 "Hg10 mi
8:54 PM28 °FMostly cloudy.8 mph85%30.29 "Hg10 mi
7:54 PM28 °FLight snow. Ice fog.6 mph85%30.30 "Hg5 mi
6:54 PM29 °FOvercast.6 mph75%30.30 "Hg10 mi
5:54 PM29 °FMostly cloudy.7 mph79%30.28 "Hg10 mi
4:54 PM29 °FOvercast.7 mph79%30.27 "Hg10 mi
3:54 PM30 °FOvercast.5 mph72%30.27 "Hg10 mi
Weather by CustomWeather, © 2014

See weather overviewHow to use our weather pages